This demonstration page uses our WeatherBlox Daily Observations layout. Learn more.

Hourly Observations for October 15, 2018

Temp ( °F °C ) Dew Point ( °F °C ) Humidity (%) Winds ( mph kmh ) Pressure ( in mb ) Visibility ( mi km ) Precip ( " mm )
12:15 am 00:15 Cloudy 30 -1.3 24 -4.7 78 78 NNW 6 9 30.48 1032 10 16.09344 0 0
12:35 am 00:35 Cloudy 30 -1.3 24 -4.6 79 79 NNW 5 7 30.48 1032 10 16.09344 0 0
12:55 am 00:55 Cloudy 30 -1.2 24 -4.7 77 77 NNW 9 15 30.48 1032 10 16.09344 0 0
1:15 am 01:15 Cloudy 30 -1.1 23 -5.2 74 74 NNW 7 11 30.48 1032 10 16.09344 0 0
1:35 am 01:35 Cloudy 30 -1.1 23 -5.2 74 74 NNW 8 13 30.48 1032 10 16.09344 0 0
1:55 am 01:55 Cloudy 30 -1.2 23 -5.2 75 75 NNW 8 13 30.48 1032 10 16.09344 0 0
2:15 am 02:15 Cloudy 30 -1.2 22 -5.6 72 72 NNW 10 17 30.48 1032 10 16.09344 0 0
2:35 am 02:35 Cloudy 30 -1.2 22 -5.5 73 73 N 8 13 30.48 1032 10 16.09344 0 0
2:55 am 02:55 Cloudy 30 -1.2 22 -5.6 72 72 NNW 7 11 30.48 1032 10 16.09344 0 0
3:15 am 03:15 Cloudy 29 -1.4 22 -5.5 74 74 NNW 6 9 30.48 1032 10 16.09344 0 0
3:35 am 03:35 Partly Cloudy 28 -2 22 -5.6 77 77 NNW 6 9 30.48 1032 10 16.09344 0 0
3:55 am 03:55 Clear 27 -2.9 22 -5.5 82 82 NW 5 7 30.48 1032 10 16.09344 0 0
4:15 am 04:15 Clear 26 -3.5 22 -5.5 86 86 WNW 5 7 30.5 1033 10 16.09344 0 0
4:35 am 04:35 Clear 25 -3.7 22 -5.6 87 87 WNW 5 7 30.5 1033 10 16.09344 0 0
4:55 am 04:55 Clear 25 -4 22 -5.7 88 88 W 8 13 30.5 1033 10 16.09344 0 0
5:15 am 05:15 Clear 25 -4.1 22 -5.7 89 89 WNW 7 11 30.5 1033 10 16.09344 0 0
5:35 am 05:35 Clear 24 -4.5 21 -5.9 90 90 WNW 6 9 30.5 1033 10 16.09344 0 0
5:55 am 05:55 Clear 24 -4.7 21 -6 91 91 WNW 5 7 30.5 1033 10 16.09344 0 0
6:15 am 06:15 Clear 23 -4.8 21 -6 91 91 WNW 5 7 30.5 1033 10 16.09344 0 0
6:35 am 06:35 Clear 23 -5.1 21 -6.1 93 93 WNW 3 6 30.5 1033 10 16.09344 0 0
6:55 am 06:55 Clear 22 -5.3 21 -6.2 93 93 WNW 5 7 30.5 1033 10 16.09344 0 0
7:15 am 07:15 Clear 23 -5.2 21 -6.3 92 92 WNW 7 11 30.5 1033 10 16.09344 0 0
7:35 am 07:35 Clear 23 -5.2 21 -6.3 92 92 WNW 5 7 30.5 1033 10 16.09344 0 0
7:55 am 07:55 Sunny 23 -5.2 20 -6.5 91 91 W 5 7 30.5 1033 10 16.09344 0 0
8:15 am 08:15 Sunny 23 -4.8 21 -6.1 91 91 WNW 5 7 30.53 1034 10 16.09344 0 0
8:35 am 08:35 Sunny 25 -4.1 22 -5.7 89 89 WNW 5 7 30.53 1034 10 16.09344 0 0
8:55 am 08:55 Sunny 26 -3.2 22 -5.3 86 86 W 7 11 30.53 1034 10 16.09344 0 0
9:15 am 09:15 Sunny 28 -2.2 24 -4.5 84 84 W 6 9 30.5 1033 10 16.09344 0 0
9:35 am 09:35 Sunny 30 -1.2 25 -4.1 81 81 WNW 7 11 30.5 1033 10 16.09344 0 0
9:55 am 09:55 Sunny 32 -0.1 25 -3.7 77 77 W 6 9 30.48 1032 10 16.09344 0 0
10:15 am 10:15 Sunny 33 0.5 25 -3.9 73 73 WNW 8 13 30.48 1032 10 16.09344 0 0
10:35 am 10:35 Sunny 34 1.1 24 -4.2 68 68 W 9 15 30.48 1032 10 16.09344 0 0
10:55 am 10:55 Sunny 35 1.5 24 -4.7 64 64 W 9 15 30.48 1032 10 16.09344 0 0
11:15 am 11:15 Sunny 35 1.8 23 -4.8 62 62 W 8 13 30.48 1032 10 16.09344 0 0
11:35 am 11:35 Sunny 36 2.2 24 -4.4 62 62 W 7 11 30.48 1032 10 16.09344 0 0
11:55 am 11:55 Sunny 37 2.5 23 -4.9 59 59 W 8 13 30.48 1032 10 16.09344 0 0
12:15 pm 12:15 Sunny 37 3 24 -4.3 59 59 W 9 15 30.45 1031 10 16.09344 0 0
12:35 pm 12:35 Sunny 38 3.5 24 -4.4 57 57 WNW 6 9 30.45 1031 10 16.09344 0 0
12:55 pm 12:55 Sunny 39 3.9 24 -4.4 55 55 WSW 9 15 30.45 1031 10 16.09344 0 0
1:15 pm 13:15 Sunny 41 4.9 25 -3.9 53 53 W 12 19 30.45 1031 10 16.09344 0 0
1:35 pm 13:35 Sunny 41 4.9 25 -3.8 54 54 W 9 15 30.42 1030 10 16.09344 0 0
1:55 pm 13:55 Sunny 42 5.7 25 -3.8 51 51 W 10 17 30.42 1030 10 16.09344 0 0
2:15 pm 14:15 Sunny 43 5.9 26 -3.4 52 52 WNW 10 17 30.39 1029 10 16.09344 0 0
2:35 pm 14:35 Sunny 45 7 26 -3.2 49 49 W 10 17 30.36 1028 10 16.09344 0 0
2:55 pm 14:55 Sunny 44 6.7 25 -3.8 47 47 W 8 13 30.36 1028 10 16.09344 0 0
3:15 pm 15:15 Sunny 45 7.4 24 -4.5 43 43 WNW 7 11 30.36 1028 10 16.09344 0 0
3:35 pm 15:35 Sunny 46 7.7 24 -4.2 43 43 W 9 15 30.33 1027 10 16.09344 0 0
3:55 pm 15:55 Sunny 47 8.1 25 -4 43 43 W 12 19 30.33 1027 10 16.09344 0 0
4:15 pm 16:15 Sunny 47 8.5 25 -4 41 41 W 8 13 30.33 1027 10 16.09344 0 0
4:35 pm 16:35 Sunny 47 8.6 23 -4.8 39 39 W 8 13 30.3 1026 10 16.09344 0 0
4:55 pm 16:55 Sunny 48 8.8 23 -5.1 37 37 WNW 10 17 30.3 1026 10 16.09344 0 0
5:15 pm 17:15 Sunny 48 8.8 23 -5.2 37 37 W 9 15 30.3 1026 10 16.09344 0 0
5:35 pm 17:35 Sunny 48 8.8 23 -5 38 38 WSW 7 11 30.27 1025 10 16.09344 0 0
5:55 pm 17:55 Sunny 47 8.6 23 -5 38 38 W 9 15 30.27 1025 10 16.09344 0 0
6:15 pm 18:15 Sunny 47 8.5 24 -4.7 39 39 WSW 6 9 30.27 1025 10 16.09344 0 0
6:35 pm 18:35 Sunny 46 7.6 23 -4.8 41 41 WSW 5 7 30.3 1026 10 16.09344 0 0
6:55 pm 18:55 Sunny 43 6.3 24 -4.6 46 46 WSW 5 7 30.3 1026 10 16.09344 0 0
7:15 pm 19:15 Clear 41 5 27 -3 57 57 SW 3 6 30.3 1026 10 16.09344 0 0
7:35 pm 19:35 Clear 39 4.1 26 -3.2 59 59 SW 6 9 30.33 1027 10 16.09344 0 0
7:55 pm 19:55 Clear 38 3.4 26 -3.4 61 61 SW 5 7 30.33 1027 10 16.09344 0 0
8:15 pm 20:15 Clear 37 2.8 26 -3.5 64 64 SW 5 7 30.36 1028 10 16.09344 0 0
8:35 pm 20:35 Clear 36 2.3 25 -3.7 65 65 SW 5 7 30.36 1028 10 16.09344 0 0
8:55 pm 20:55 Clear 35 1.5 25 -3.9 68 68 SW 3 6 30.36 1028 10 16.09344 0 0
9:15 pm 21:15 Clear 35 1.4 25 -4 68 68 SW 5 7 30.36 1028 10 16.09344 0 0
9:35 pm 21:35 Clear 35 1.6 25 -3.9 67 67 SW 8 13 30.36 1028 10 16.09344 0 0
9:55 pm 21:55 Clear 33 0.8 25 -4 71 71 SSW 7 11 30.36 1028 10 16.09344 0 0
10:15 pm 22:15 Clear 34 1 25 -3.9 70 70 SSW 9 15 30.36 1028 10 16.09344 0 0
10:35 pm 22:35 Clear 33 0.6 25 -3.7 73 73 SW 8 13 30.36 1028 10 16.09344 0 0
10:55 pm 22:55 Clear 33 0.8 25 -3.7 72 72 SW 8 13 30.36 1028 10 16.09344 0 0
11:15 pm 23:15 Clear 34 1.1 25 -3.8 70 70 SW 8 13 30.36 1028 10 16.09344 0 0
11:35 pm 23:35 Clear 34 0.9 25 -4 70 70 SW 7 11 30.36 1028 10 16.09344 0 0
11:55 pm 23:55 Clear 33 0.8 24 -4.2 70 70 SW 6 9 30.36 1028 10 16.09344 0 0

Powered by AerisWeather